Погода в Верхнем Дуброве

Россия / Свердловская область     56°45′09″N   61°02′39″E
темп.,
°C
ветер,
м/с
пор.,
м/с
влажн.,
%
обл.,
%
осадки,
мм/ч
давл.,
гПа
погр.,
м
27 октября, ср
ср2723:00−1юз4118895 0.6 1019778
02:00−1зюз5118185 0.1 1019725
05:00−1зюз41181100 0.1 1019703
08:00−1зюз4108189 0.1 1019650
11:00+1зюз597277 0.1 1019696
14:00+2зюз486978 0.0 1018826
17:00+1юз497495 0.0 1017595
20:000юз41175100 0.0 1016649
28 октября, чт
чт2823:00+1юз41176100 0.0 1014681
02:00+1юз41277100 0.0 1012677
05:00+1юз51477100 0.0 1010700
08:00+1юз61573100 0.0 1008734
11:00+2зюз71465100 0.0 1007931
14:00+2зюз71470100 0.0 10061103
17:00+2зюз61478100 0.0 1007993
20:00+2з61496100 0.1 10081192
29 октября, пт
пт2923:00+2з61387100 0.3 10081177
02:00+2зюз61296100 0.1 10081025
05:00+1сз5996100 1.7 1009595
08:00−4сз5116878 0.4 1013800
11:00−4зсз611645 0.4 1016968
14:00−2сз610565 0.0 10191295
17:00−4зсз612615 0.0 10221122
20:00−4зсз612665 0.0 1025998
30 октября, сб
сб3023:00−5зсз511735 0.0 1027753
02:00−6з4978100 0.0 1028524
05:00−5зюз41174100 0.0 1029585
08:00−4зюз41263100 0.0 1027673
11:00−2юз61454100 0.1 1025753
14:00−1зюз71655100 0.3 10211136
17:00−1зюз61475100 0.4 1019989
20:00−2з61481100 0.1 1019766
31 октября, вс
вс3123:00−1з51490100 0.2 1020626
02:00+1зсз51391100 0.1 1020631
05:00+1зсз41197100 0.1 1021539
08:00+1з31098100 0.0 1023465
11:00+2з3998100 0.1 1024381
14:00+2зюз31096100 0.0 1024457
17:00+2зюз41296100 0.1 1024480
20:00+3зюз4129395 0.0 1024490